TURKSAT 5B

Last updated on Tue Oct 28 2025 00:02:51 GMT+0000 (Coordinated Universal Time)

1 50212U 21126A 25300.12470311 .00000157 00000+0 00000+0 0 9992 2 50212 0.0761 333.1349 0002905 319.1941 190.3409 1.00272525 13965
UTC large
Height (km)
Speed (km/s)
/
Latitude / Longitude
Inclination (degrees)
Orbital Period (minutes)
Azimuth
Elevation
Range (km)
Doppler Factor

Next 0 passes for location: London (51.5072 / 0.1276)

Sorry there are no passes over London.